Wetterdaten: Freitag, 07.06.2013
Datum Zeit Temperatur Luftfeuchte Luftdruck Regen Wind Richtung Richtung Taupunkt Windchill Windben
07.06.2013 00:00 9,1 C 84 % 1021,4 hPa 0,0 l/m 0,0 km/h (0 Bft) O-NO 67 6,5 C 8,8 C 0,0 km/h (0 Bft)
07.06.2013 00:05 9,2 C 84 % 1021,4 hPa 0,0 l/m 0,0 km/h (0 Bft) W 270 6,6 C 8,8 C 0,0 km/h (0 Bft)
07.06.2013 00:10 8,8 C 84 % 1021,4 hPa 0,0 l/m 0,0 km/h (0 Bft) W 270 6,2 C 8,7 C 0,0 km/h (0 Bft)
07.06.2013 00:15 8,7 C 85 % 1021,4 hPa 0,0 l/m 0,0 km/h (0 Bft) NO 45 6,3 C 8,5 C 0,0 km/h (0 Bft)
07.06.2013 00:20 9,0 C 85 % 1021,3 hPa 0,0 l/m 0,6 km/h (0 Bft) O 90 6,6 C 8,5 C 4,8 km/h (1 Bft)
07.06.2013 00:25 9,3 C 86 % 1021,3 hPa 0,0 l/m 1,3 km/h (1 Bft) O-SO 112 7,1 C 9,2 C 2,3 km/h (1 Bft)
07.06.2013 00:30 9,3 C 86 % 1021,3 hPa 0,0 l/m 1,3 km/h (1 Bft) O 90 7,1 C 9,3 C 2,3 km/h (1 Bft)
07.06.2013 00:35 9,4 C 86 % 1021,3 hPa 0,0 l/m 0,3 km/h (0 Bft) O 90 7,2 C 9,3 C 0,0 km/h (0 Bft)
07.06.2013 00:40 9,3 C 86 % 1021,4 hPa 0,0 l/m 1,0 km/h (0 Bft) O-SO 112 7,1 C 9,3 C 3,4 km/h (1 Bft)
07.06.2013 00:45 9,3 C 86 % 1021,4 hPa 0,0 l/m 1,8 km/h (1 Bft) SO 135 7,1 C 9,5 C 1,6 km/h (1 Bft)
07.06.2013 00:50 9,3 C 86 % 1021,4 hPa 0,0 l/m 1,3 km/h (1 Bft) N-NO 22 7,1 C 9,5 C 0,0 km/h (0 Bft)
07.06.2013 00:55 9,0 C 86 % 1021,4 hPa 0,0 l/m 0,3 km/h (0 Bft) O 90 6,8 C 9,3 C 0,0 km/h (0 Bft)
07.06.2013 01:00 9,1 C 86 % 1021,3 hPa 0,0 l/m 0,2 km/h (0 Bft) S-SO 157 6,9 C 9,2 C 0,0 km/h (0 Bft)
07.06.2013 01:05 9,1 C 86 % 1021,3 hPa 0,0 l/m 0,0 km/h (0 Bft) S 180 6,9 C 9,1 C 0,0 km/h (0 Bft)
07.06.2013 01:10 9,0 C 86 % 1021,3 hPa 0,0 l/m 0,0 km/h (0 Bft) O-SO 112 6,8 C 9,0 C 0,0 km/h (0 Bft)
07.06.2013 01:15 8,7 C 86 % 1021,3 hPa 0,0 l/m 0,0 km/h (0 Bft) S-SW 202 6,5 C 8,8 C 0,0 km/h (0 Bft)
07.06.2013 01:20 8,6 C 86 % 1021,5 hPa 0,0 l/m 0,0 km/h (0 Bft) W 270 6,4 C 8,5 C 0,0 km/h (0 Bft)
07.06.2013 01:25 8,4 C 86 % 1021,5 hPa 0,0 l/m 0,0 km/h (0 Bft) W 270 6,2 C 8,2 C 0,0 km/h (0 Bft)
07.06.2013 01:30 8,3 C 86 % 1021,5 hPa 0,0 l/m 0,0 km/h (0 Bft) W 270 6,1 C 8,1 C 0,0 km/h (0 Bft)
07.06.2013 01:35 8,1 C 87 % 1021,5 hPa 0,0 l/m 0,0 km/h (0 Bft) W 270 6,1 C 7,9 C 0,0 km/h (0 Bft)
07.06.2013 01:40 7,8 C 87 % 1021,2 hPa 0,0 l/m 0,0 km/h (0 Bft) W 270 5,8 C 7,7 C 0,0 km/h (0 Bft)
07.06.2013 01:45 7,7 C 87 % 1021,2 hPa 0,0 l/m 0,0 km/h (0 Bft) W 270 5,7 C 7,4 C 0,0 km/h (0 Bft)
07.06.2013 01:50 7,6 C 87 % 1021,2 hPa 0,0 l/m 0,0 km/h (0 Bft) W 270 5,6 C 7,3 C 0,0 km/h (0 Bft)
07.06.2013 01:55 7,3 C 87 % 1021,2 hPa 0,0 l/m 0,0 km/h (0 Bft) W 270 5,3 C 7,2 C 0,0 km/h (0 Bft)
07.06.2013 02:00 7,3 C 87 % 1021,2 hPa 0,0 l/m 0,0 km/h (0 Bft) W 270 5,3 C 7,1 C 0,0 km/h (0 Bft)
07.06.2013 02:05 7,4 C 88 % 1021,2 hPa 0,0 l/m 0,0 km/h (0 Bft) N-NW 337 5,5 C 7,1 C 0,0 km/h (0 Bft)
07.06.2013 02:10 7,3 C 88 % 1021,2 hPa 0,0 l/m 0,0 km/h (0 Bft) N-NO 22 5,4 C 7,1 C 0,0 km/h (0 Bft)
07.06.2013 02:15 7,5 C 89 % 1021,2 hPa 0,0 l/m 0,0 km/h (0 Bft) N-NO 22 5,8 C 7,1 C 0,0 km/h (0 Bft)
07.06.2013 02:20 7,4 C 89 % 1021,2 hPa 0,0 l/m 0,0 km/h (0 Bft) NO 45 5,7 C 7,0 C 0,0 km/h (0 Bft)
07.06.2013 02:25 7,3 C 89 % 1021,2 hPa 0,0 l/m 0,0 km/h (0 Bft) N-NO 22 5,6 C 7,0 C 0,0 km/h (0 Bft)
07.06.2013 02:30 7,2 C 89 % 1021,2 hPa 0,0 l/m 0,0 km/h (0 Bft) N-NO 22 5,5 C 7,0 C 0,0 km/h (0 Bft)
07.06.2013 02:35 7,5 C 89 % 1021,2 hPa 0,0 l/m 0,0 km/h (0 Bft) O-NO 67 5,8 C 7,1 C 0,0 km/h (0 Bft)
07.06.2013 02:40 7,5 C 89 % 1021,1 hPa 0,0 l/m 0,0 km/h (0 Bft) O-SO 112 5,8 C 7,2 C 0,0 km/h (0 Bft)
07.06.2013 02:45 7,3 C 89 % 1021,1 hPa 0,0 l/m 0,0 km/h (0 Bft) O 90 5,6 C 7,2 C 0,0 km/h (0 Bft)
07.06.2013 02:50 7,2 C 89 % 1021,1 hPa 0,0 l/m 0,0 km/h (0 Bft) NO 45 5,5 C 7,1 C 0,0 km/h (0 Bft)
07.06.2013 02:55 7,1 C 89 % 1021,1 hPa 0,0 l/m 0,0 km/h (0 Bft) N-NO 22 5,4 C 7,1 C 0,0 km/h (0 Bft)
07.06.2013 03:00 6,9 C 90 % 1021,1 hPa 0,0 l/m 0,0 km/h (0 Bft) O-SO 112 5,4 C 7,0 C 0,0 km/h (0 Bft)
07.06.2013 03:05 7,0 C 89 % 1021,1 hPa 0,0 l/m 0,0 km/h (0 Bft) O 90 5,3 C 6,9 C 0,0 km/h (0 Bft)
07.06.2013 03:10 6,9 C 90 % 1021,1 hPa 0,0 l/m 0,0 km/h (0 Bft) NO 45 5,4 C 6,8 C 0,0 km/h (0 Bft)
07.06.2013 03:15 7,0 C 90 % 1021,1 hPa 0,0 l/m 0,0 km/h (0 Bft) O-NO 67 5,5 C 6,7 C 0,0 km/h (0 Bft)
07.06.2013 03:20 7,2 C 90 % 1021,1 hPa 0,0 l/m 0,0 km/h (0 Bft) O-SO 112 5,7 C 6,8 C 0,0 km/h (0 Bft)
07.06.2013 03:25 7,1 C 90 % 1021,1 hPa 0,0 l/m 0,0 km/h (0 Bft) O-SO 112 5,6 C 6,9 C 0,0 km/h (0 Bft)
07.06.2013 03:30 7,0 C 90 % 1021,1 hPa 0,0 l/m 0,0 km/h (0 Bft) NO 45 5,5 C 6,8 C 0,0 km/h (0 Bft)
07.06.2013 03:35 6,9 C 90 % 1021,1 hPa 0,0 l/m 0,0 km/h (0 Bft) O 90 5,4 C 6,7 C 0,0 km/h (0 Bft)
07.06.2013 03:40 7,0 C 90 % 1021,3 hPa 0,0 l/m 0,0 km/h (0 Bft) O-SO 112 5,5 C 6,7 C 0,0 km/h (0 Bft)
07.06.2013 03:45 6,9 C 90 % 1021,3 hPa 0,0 l/m 0,0 km/h (0 Bft) N-NO 22 5,4 C 6,8 C 0,0 km/h (0 Bft)
07.06.2013 03:50 6,7 C 90 % 1021,3 hPa 0,0 l/m 0,0 km/h (0 Bft) N-NO 22 5,2 C 6,8 C 0,0 km/h (0 Bft)
07.06.2013 03:55 6,7 C 90 % 1021,3 hPa 0,0 l/m 0,0 km/h (0 Bft) O-NO 67 5,2 C 6,7 C 0,0 km/h (0 Bft)
07.06.2013 04:00 6,4 C 90 % 1021,0 hPa 0,0 l/m 0,0 km/h (0 Bft) O 90 4,9 C 6,6 C 0,0 km/h (0 Bft)
07.06.2013 04:05 6,3 C 90 % 1021,0 hPa 0,0 l/m 0,0 km/h (0 Bft) O-NO 67 4,8 C 6,3 C 0,0 km/h (0 Bft)
07.06.2013 04:10 6,3 C 90 % 1021,0 hPa 0,0 l/m 0,0 km/h (0 Bft) N 360 4,8 C 6,2 C 0,0 km/h (0 Bft)
07.06.2013 04:15 6,6 C 90 % 1021,0 hPa 0,0 l/m 0,0 km/h (0 Bft) N-NO 22 5,1 C 6,3 C 0,0 km/h (0 Bft)
07.06.2013 04:20 6,4 C 90 % 1020,9 hPa 0,0 l/m 0,0 km/h (0 Bft) O-NO 67 4,9 C 6,3 C 0,0 km/h (0 Bft)
07.06.2013 04:25 6,2 C 90 % 1020,9 hPa 0,0 l/m 0,0 km/h (0 Bft) O-SO 112 4,7 C 6,3 C 0,0 km/h (0 Bft)
07.06.2013 04:30 6,2 C 90 % 1020,9 hPa 0,0 l/m 0,0 km/h (0 Bft) N 360 4,7 C 6,2 C 0,0 km/h (0 Bft)
07.06.2013 04:35 6,0 C 90 % 1020,9 hPa 0,0 l/m 0,0 km/h (0 Bft) N 360 4,5 C 5,9 C 0,0 km/h (0 Bft)
07.06.2013 04:40 6,1 C 90 % 1020,9 hPa 0,0 l/m 0,0 km/h (0 Bft) N-NO 22 4,6 C 5,8 C 0,0 km/h (0 Bft)
07.06.2013 04:45 6,2 C 90 % 1020,9 hPa 0,0 l/m 0,0 km/h (0 Bft) N 360 4,7 C 5,8 C 0,0 km/h (0 Bft)
07.06.2013 04:50 5,9 C 92 % 1020,9 hPa 0,0 l/m 0,0 km/h (0 Bft) N-NO 22 4,7 C 6,0 C 0,0 km/h (0 Bft)
07.06.2013 04:55 6,4 C 90 % 1020,9 hPa 0,0 l/m 0,0 km/h (0 Bft) O 90 4,9 C 6,0 C 0,0 km/h (0 Bft)
07.06.2013 05:00 6,5 C 91 % 1021,0 hPa 0,0 l/m 0,0 km/h (0 Bft) O 90 5,1 C 6,0 C 0,0 km/h (0 Bft)
07.06.2013 05:05 6,0 C 90 % 1021,0 hPa 0,0 l/m 0,0 km/h (0 Bft) N-NO 22 4,5 C 6,0 C 0,0 km/h (0 Bft)
07.06.2013 05:10 6,2 C 90 % 1021,0 hPa 0,0 l/m 0,0 km/h (0 Bft) O 90 4,7 C 6,0 C 0,0 km/h (0 Bft)
07.06.2013 05:15 6,7 C 91 % 1021,0 hPa 0,0 l/m 0,0 km/h (0 Bft) O 90 5,3 C 6,0 C 0,0 km/h (0 Bft)
07.06.2013 05:20 6,3 C 91 % 1021,0 hPa 0,0 l/m 0,0 km/h (0 Bft) O-NO 67 4,9 C 6,0 C 0,0 km/h (0 Bft)
07.06.2013 05:25 6,0 C 91 % 1021,0 hPa 0,0 l/m 0,0 km/h (0 Bft) N-NO 22 4,6 C 6,0 C 0,0 km/h (0 Bft)
07.06.2013 05:30 6,1 C 91 % 1021,0 hPa 0,0 l/m 0,0 km/h (0 Bft) O-SO 112 4,7 C 5,9 C 0,0 km/h (0 Bft)
07.06.2013 05:35 7,0 C 92 % 1021,0 hPa 0,0 l/m 0,3 km/h (0 Bft) O-SO 112 5,8 C 6,2 C 0,0 km/h (0 Bft)
07.06.2013 05:40 6,9 C 92 % 1020,9 hPa 0,0 l/m 0,5 km/h (0 Bft) W-NW 292 5,7 C 6,7 C 0,0 km/h (0 Bft)
07.06.2013 05:45 6,2 C 92 % 1020,9 hPa 0,0 l/m 0,2 km/h (0 Bft) W-NW 292 5,0 C 6,5 C 0,0 km/h (0 Bft)
07.06.2013 05:50 6,1 C 91 % 1020,9 hPa 0,0 l/m 0,0 km/h (0 Bft) N-NW 337 4,7 C 6,3 C 0,0 km/h (0 Bft)
07.06.2013 05:55 6,5 C 91 % 1020,9 hPa 0,0 l/m 0,0 km/h (0 Bft) N-NW 337 5,1 C 6,9 C 0,0 km/h (0 Bft)
07.06.2013 06:00 7,5 C 91 % 1021,6 hPa 0,0 l/m 0,0 km/h (0 Bft) N-NO 22 6,1 C 7,4 C 0,0 km/h (0 Bft)
07.06.2013 06:05 8,9 C 91 % 1021,6 hPa 0,0 l/m 0,0 km/h (0 Bft) N 360 7,5 C 8,3 C 0,0 km/h (0 Bft)
07.06.2013 06:10 8,8 C 90 % 1021,6 hPa 0,0 l/m 0,0 km/h (0 Bft) N-NO 22 7,3 C 8,8 C 0,0 km/h (0 Bft)
07.06.2013 06:15 9,4 C 90 % 1021,6 hPa 0,0 l/m 0,0 km/h (0 Bft) N-NW 337 7,8 C 9,4 C 0,0 km/h (0 Bft)
07.06.2013 06:20 10,0 C 89 % 1021,8 hPa 0,0 l/m 0,0 km/h (0 Bft) N 360 8,3 C 9,8 C 0,0 km/h (0 Bft)
07.06.2013 06:25 10,7 C 89 % 1021,8 hPa 0,0 l/m 0,0 km/h (0 Bft) N-NO 22 9,0 C 10,6 C 0,0 km/h (0 Bft)
07.06.2013 06:30 10,8 C 88 % 1021,8 hPa 0,0 l/m 0,0 km/h (0 Bft) NO 45 8,9 C 11,0 C 0,0 km/h (0 Bft)
07.06.2013 06:35 12,4 C 87 % 1021,8 hPa 0,0 l/m 0,0 km/h (0 Bft) N 360 10,3 C 12,1 C 0,0 km/h (0 Bft)
07.06.2013 06:40 13,2 C 84 % 1021,6 hPa 0,0 l/m 0,0 km/h (0 Bft) N-NO 22 10,6 C 12,8 C 0,0 km/h (0 Bft)
07.06.2013 06:45 14,1 C 82 % 1021,6 hPa 0,0 l/m 0,0 km/h (0 Bft) O 90 11,1 C 13,6 C 0,0 km/h (0 Bft)
07.06.2013 06:50 14,7 C 80 % 1021,6 hPa 0,0 l/m 0,0 km/h (0 Bft) W-NW 292 11,3 C 14,3 C 0,0 km/h (0 Bft)
07.06.2013 06:55 15,4 C 73 % 1021,6 hPa 0,0 l/m 0,0 km/h (0 Bft) NO 45 10,6 C 15,1 C 0,0 km/h (0 Bft)
07.06.2013 07:00 15,5 C 72 % 1021,7 hPa 0,0 l/m 0,0 km/h (0 Bft) NO 45 10,5 C 15,4 C 0,0 km/h (0 Bft)
07.06.2013 07:05 17,3 C 71 % 1021,7 hPa 0,0 l/m 0,0 km/h (0 Bft) N 360 12,0 C 16,4 C 0,0 km/h (0 Bft)
07.06.2013 07:10 17,6 C 67 % 1021,7 hPa 0,0 l/m 0,0 km/h (0 Bft) NW 315 11,4 C 16,9 C 0,0 km/h (0 Bft)
07.06.2013 07:15 17,6 C 62 % 1021,7 hPa 0,0 l/m 0,0 km/h (0 Bft) N-NO 22 10,2 C 17,7 C 0,0 km/h (0 Bft)
07.06.2013 07:20 17,6 C 61 % 1021,6 hPa 0,0 l/m 0,0 km/h (0 Bft) N 360 10,0 C 18,2 C 0,0 km/h (0 Bft)
07.06.2013 07:25 18,4 C 61 % 1021,6 hPa 0,0 l/m 0,0 km/h (0 Bft) W 270 10,7 C 18,9 C 0,0 km/h (0 Bft)
07.06.2013 07:30 18,5 C 58 % 1021,6 hPa 0,0 l/m 0,0 km/h (0 Bft) N 360 10,1 C 19,2 C 0,0 km/h (0 Bft)
07.06.2013 07:35 19,4 C 60 % 1021,6 hPa 0,0 l/m 0,0 km/h (0 Bft) N-NO 22 11,4 C 20,0 C 0,0 km/h (0 Bft)
07.06.2013 07:40 19,0 C 57 % 1021,9 hPa 0,0 l/m 0,0 km/h (0 Bft) N 360 10,3 C 20,5 C 0,0 km/h (0 Bft)
07.06.2013 07:45 18,6 C 57 % 1021,9 hPa 0,0 l/m 0,0 km/h (0 Bft) N-NW 337 9,9 C 20,8 C 0,0 km/h (0 Bft)
07.06.2013 07:50 19,6 C 57 % 1021,9 hPa 0,0 l/m 0,0 km/h (0 Bft) N-NW 337 10,8 C 21,0 C 0,0 km/h (0 Bft)
07.06.2013 07:55 19,9 C 56 % 1021,9 hPa 0,0 l/m 0,0 km/h (0 Bft) W-NW 292 10,9 C 21,4 C 0,0 km/h (0 Bft)
07.06.2013 08:00 20,8 C 56 % 1021,5 hPa 0,0 l/m 0,0 km/h (0 Bft) W-NW 292 11,7 C 21,1 C 0,0 km/h (0 Bft)
07.06.2013 08:05 21,5 C 55 % 1021,5 hPa 0,0 l/m 0,0 km/h (0 Bft) W-NW 292 12,1 C 21,1 C 0,0 km/h (0 Bft)
07.06.2013 08:10 22,4 C 54 % 1021,5 hPa 0,0 l/m 0,0 km/h (0 Bft) W-NW 292 12,6 C 21,5 C 0,0 km/h (0 Bft)
07.06.2013 08:15 22,2 C 52 % 1021,5 hPa 0,0 l/m 0,0 km/h (0 Bft) W-NW 292 11,9 C 22,4 C 0,0 km/h (0 Bft)
07.06.2013 08:20 22,4 C 48 % 1021,9 hPa 0,0 l/m 0,0 km/h (0 Bft) N-NW 337 10,8 C 22,9 C 0,0 km/h (0 Bft)
07.06.2013 08:25 21,8 C 52 % 1021,9 hPa 0,0 l/m 0,0 km/h (0 Bft) N-NW 337 11,5 C 23,3 C 0,0 km/h (0 Bft)
07.06.2013 08:30 21,1 C 48 % 1021,9 hPa 0,0 l/m 0,3 km/h (0 Bft) W 270 9,7 C 23,3 C 1,9 km/h (1 Bft)
07.06.2013 08:35 21,6 C 49 % 1021,9 hPa 0,0 l/m 1,0 km/h (0 Bft) W-SW 247 10,4 C 22,7 C 1,6 km/h (1 Bft)
07.06.2013 08:40 21,7 C 49 % 1022,2 hPa 0,0 l/m 1,8 km/h (1 Bft) S-SW 202 10,5 C 22,2 C 3,5 km/h (1 Bft)
07.06.2013 08:45 21,6 C 48 % 1022,2 hPa 0,0 l/m 2,3 km/h (1 Bft) S 180 10,1 C 21,6 C 2,3 km/h (1 Bft)
07.06.2013 08:50 21,8 C 48 % 1022,2 hPa 0,0 l/m 1,9 km/h (1 Bft) W-NW 292 10,3 C 21,5 C 2,4 km/h (1 Bft)
07.06.2013 08:55 21,8 C 48 % 1022,2 hPa 0,0 l/m 1,1 km/h (1 Bft) N 360 10,3 C 22,0 C 0,0 km/h (0 Bft)
07.06.2013 09:00 22,2 C 48 % 1022,1 hPa 0,0 l/m 0,8 km/h (0 Bft) N-NO 22 10,7 C 22,8 C 0,0 km/h (0 Bft)
07.06.2013 09:05 23,2 C 47 % 1022,1 hPa 0,0 l/m 0,6 km/h (0 Bft) SW 225 11,3 C 23,5 C 0,0 km/h (0 Bft)
07.06.2013 09:10 22,9 C 46 % 1022,1 hPa 0,0 l/m 1,0 km/h (0 Bft) S 180 10,7 C 23,8 C 0,0 km/h (0 Bft)
07.06.2013 09:15 23,5 C 46 % 1022,1 hPa 0,0 l/m 0,5 km/h (0 Bft) W-SW 247 11,2 C 24,5 C 0,0 km/h (0 Bft)
07.06.2013 09:20 22,6 C 46 % 1022,4 hPa 0,0 l/m 0,6 km/h (0 Bft) N 360 10,4 C 24,5 C 1,9 km/h (1 Bft)
07.06.2013 09:25 23,9 C 46 % 1022,4 hPa 0,0 l/m 1,0 km/h (0 Bft) O 90 11,6 C 24,8 C 0,0 km/h (0 Bft)
07.06.2013 09:30 23,1 C 46 % 1022,4 hPa 0,0 l/m 0,6 km/h (0 Bft) N 360 10,8 C 25,5 C 0,0 km/h (0 Bft)
07.06.2013 09:35 22,4 C 45 % 1022,4 hPa 0,0 l/m 1,3 km/h (1 Bft) N 360 9,9 C 25,1 C 5,1 km/h (1 Bft)
07.06.2013 09:40 22,3 C 46 % 1022,0 hPa 0,0 l/m 1,9 km/h (1 Bft) O 90 10,1 C 24,6 C 2,4 km/h (1 Bft)
07.06.2013 09:45 23,7 C 45 % 1022,0 hPa 0,0 l/m 1,4 km/h (1 Bft) S 180 11,1 C 25,1 C 0,0 km/h (0 Bft)
07.06.2013 09:50 23,7 C 43 % 1022,0 hPa 0,0 l/m 1,0 km/h (0 Bft) O 90 10,4 C 25,6 C 0,0 km/h (0 Bft)
07.06.2013 09:55 22,9 C 45 % 1022,0 hPa 0,0 l/m 0,5 km/h (0 Bft) W-NW 292 10,3 C 26,1 C 1,9 km/h (1 Bft)
07.06.2013 10:00 22,8 C 45 % 1022,6 hPa 0,0 l/m 0,8 km/h (0 Bft) N-NW 337 10,2 C 26,0 C 4,2 km/h (1 Bft)
07.06.2013 10:05 23,1 C 44 % 1022,6 hPa 0,0 l/m 1,4 km/h (1 Bft) W-NW 292 10,2 C 25,7 C 0,0 km/h (0 Bft)
07.06.2013 10:10 23,1 C 43 % 1022,6 hPa 0,0 l/m 1,4 km/h (1 Bft) O-SO 112 9,8 C 25,9 C 0,0 km/h (0 Bft)
07.06.2013 10:15 22,3 C 46 % 1022,6 hPa 0,0 l/m 2,4 km/h (1 Bft) W-SW 247 10,1 C 24,9 C 3,2 km/h (1 Bft)
07.06.2013 10:20 22,8 C 46 % 1022,9 hPa 0,0 l/m 3,1 km/h (1 Bft) S 180 10,6 C 24,7 C 9,3 km/h (2 Bft)
07.06.2013 10:25 22,7 C 45 % 1022,9 hPa 0,0 l/m 2,4 km/h (1 Bft) W-NW 292 10,1 C 25,2 C 4,8 km/h (1 Bft)
07.06.2013 10:30 23,6 C 43 % 1022,9 hPa 0,0 l/m 2,4 km/h (1 Bft) W 270 10,3 C 25,4 C 3,9 km/h (1 Bft)
07.06.2013 10:35 22,5 C 45 % 1022,9 hPa 0,0 l/m 3,9 km/h (1 Bft) W-NW 292 10,0 C 25,0 C 6,4 km/h (2 Bft)
07.06.2013 10:40 22,7 C 44 % 1022,8 hPa 0,0 l/m 5,1 km/h (1 Bft) W-NW 292 9,8 C 24,3 C 10,5 km/h (2 Bft)
07.06.2013 10:45 22,4 C 45 % 1022,8 hPa 0,0 l/m 5,0 km/h (1 Bft) W-SW 247 9,9 C 23,5 C 7,4 km/h (2 Bft)
07.06.2013 10:50 23,0 C 43 % 1022,8 hPa 0,0 l/m 4,7 km/h (1 Bft) W-NW 292 9,7 C 23,5 C 10,5 km/h (2 Bft)
07.06.2013 10:55 23,1 C 40 % 1022,8 hPa 0,0 l/m 5,5 km/h (1 Bft) W-SW 247 8,8 C 23,6 C 6,3 km/h (2 Bft)
07.06.2013 11:00 23,6 C 40 % 1023,1 hPa 0,0 l/m 5,1 km/h (1 Bft) N-NO 22 9,2 C 23,8 C 5,0 km/h (1 Bft)
07.06.2013 11:05 22,5 C 46 % 1023,1 hPa 0,0 l/m 5,0 km/h (1 Bft) W 270 10,3 C 23,3 C 4,8 km/h (1 Bft)
07.06.2013 11:10 23,7 C 41 % 1023,1 hPa 0,0 l/m 4,8 km/h (1 Bft) W 270 9,7 C 23,1 C 6,9 km/h (2 Bft)
07.06.2013 11:15 22,1 C 44 % 1023,1 hPa 0,0 l/m 4,8 km/h (1 Bft) W 270 9,3 C 23,7 C 9,5 km/h (2 Bft)
07.06.2013 11:20 22,1 C 46 % 1023,2 hPa 0,0 l/m 4,7 km/h (1 Bft) S 180 9,9 C 22,7 C 4,3 km/h (1 Bft)
07.06.2013 11:25 24,0 C 42 % 1023,2 hPa 0,0 l/m 3,5 km/h (1 Bft) S-SO 157 10,3 C 23,9 C 1,8 km/h (1 Bft)
07.06.2013 11:30 22,5 C 43 % 1023,2 hPa 0,0 l/m 3,7 km/h (1 Bft) W-NW 292 9,3 C 24,0 C 8,2 km/h (2 Bft)
07.06.2013 11:35 22,2 C 47 % 1023,2 hPa 0,0 l/m 4,2 km/h (1 Bft) W-SW 247 10,3 C 22,5 C 4,8 km/h (1 Bft)
07.06.2013 11:40 23,4 C 40 % 1023,2 hPa 0,0 l/m 4,3 km/h (1 Bft) W-NW 292 9,0 C 23,3 C 6,1 km/h (2 Bft)
07.06.2013 11:45 23,6 C 42 % 1023,2 hPa 0,0 l/m 3,5 km/h (1 Bft) W-SW 247 9,9 C 23,5 C 2,3 km/h (1 Bft)
07.06.2013 11:50 24,3 C 41 % 1023,2 hPa 0,0 l/m 2,9 km/h (1 Bft) W-NW 292 10,2 C 24,7 C 4,7 km/h (1 Bft)
07.06.2013 11:55 21,2 C 45 % 1023,2 hPa 0,0 l/m 3,1 km/h (1 Bft) W 270 8,8 C 23,9 C 3,1 km/h (1 Bft)
07.06.2013 12:00 20,2 C 46 % 1023,3 hPa 0,0 l/m 3,7 km/h (1 Bft) NO 45 8,2 C 22,9 C 2,6 km/h (1 Bft)
07.06.2013 12:05 20,1 C 49 % 1023,3 hPa 0,0 l/m 2,1 km/h (1 Bft) N-NW 337 9,0 C 21,9 C 4,5 km/h (1 Bft)
07.06.2013 12:10 22,5 C 48 % 1023,3 hPa 0,0 l/m 1,9 km/h (1 Bft) W-NW 292 10,9 C 22,5 C 7,6 km/h (2 Bft)
07.06.2013 12:15 20,8 C 46 % 1023,3 hPa 0,0 l/m 3,5 km/h (1 Bft) S 180 8,8 C 23,5 C 5,3 km/h (1 Bft)
07.06.2013 12:20 20,0 C 49 % 1023,4 hPa 0,0 l/m 4,3 km/h (1 Bft) NW 315 9,0 C 22,4 C 3,5 km/h (1 Bft)
07.06.2013 12:25 20,2 C 48 % 1023,4 hPa 0,0 l/m 4,5 km/h (1 Bft) N 360 8,8 C 21,6 C 6,1 km/h (2 Bft)
07.06.2013 12:30 21,5 C 47 % 1023,4 hPa 0,0 l/m 4,0 km/h (1 Bft) N 360 9,7 C 21,7 C 11,1 km/h (2 Bft)
07.06.2013 12:35 23,3 C 43 % 1023,4 hPa 0,0 l/m 2,6 km/h (1 Bft) W-SW 247 10,0 C 23,7 C 6,9 km/h (2 Bft)
07.06.2013 12:40 23,6 C 41 % 1023,3 hPa 0,0 l/m 3,4 km/h (1 Bft) N 360 9,6 C 24,5 C 6,3 km/h (2 Bft)
07.06.2013 12:45 22,0 C 45 % 1023,3 hPa 0,0 l/m 4,5 km/h (1 Bft) N-NW 337 9,5 C 25,5 C 2,7 km/h (1 Bft)
07.06.2013 12:50 21,3 C 48 % 1023,3 hPa 0,0 l/m 3,4 km/h (1 Bft) NW 315 9,8 C 24,7 C 6,4 km/h (2 Bft)
07.06.2013 12:55 20,8 C 49 % 1023,3 hPa 0,0 l/m 3,9 km/h (1 Bft) N 360 9,7 C 23,0 C 6,4 km/h (2 Bft)
07.06.2013 13:00 20,3 C 49 % 1023,4 hPa 0,0 l/m 4,7 km/h (1 Bft) W 270 9,2 C 22,2 C 8,5 km/h (2 Bft)
07.06.2013 13:05 20,7 C 48 % 1023,4 hPa 0,0 l/m 4,5 km/h (1 Bft) W-NW 292 9,3 C 21,5 C 8,0 km/h (2 Bft)
07.06.2013 13:10 22,0 C 46 % 1023,4 hPa 0,0 l/m 5,0 km/h (1 Bft) W-NW 292 9,8 C 21,9 C 9,5 km/h (2 Bft)
07.06.2013 13:15 22,9 C 45 % 1023,4 hPa 0,0 l/m 5,3 km/h (1 Bft) N-NW 337 10,3 C 23,4 C 5,3 km/h (1 Bft)
07.06.2013 13:20 22,8 C 44 % 1023,6 hPa 0,0 l/m 5,1 km/h (1 Bft) N-NW 337 9,9 C 23,8 C 7,2 km/h (2 Bft)
07.06.2013 13:25 23,1 C 40 % 1023,6 hPa 0,0 l/m 4,3 km/h (1 Bft) W-NW 292 8,8 C 24,6 C 4,2 km/h (1 Bft)
07.06.2013 13:30 22,1 C 44 % 1023,6 hPa 0,0 l/m 4,5 km/h (1 Bft) SW 225 9,3 C 24,7 C 5,3 km/h (1 Bft)
07.06.2013 13:35 21,5 C 45 % 1023,6 hPa 0,0 l/m 3,2 km/h (1 Bft) NO 45 9,1 C 23,9 C 1,6 km/h (1 Bft)
07.06.2013 13:40 21,0 C 48 % 1023,7 hPa 0,0 l/m 2,3 km/h (1 Bft) O-NO 67 9,6 C 24,0 C 4,7 km/h (1 Bft)
07.06.2013 13:45 21,0 C 46 % 1023,7 hPa 0,0 l/m 1,8 km/h (1 Bft) S-SW 202 8,9 C 23,7 C 2,4 km/h (1 Bft)
07.06.2013 13:50 22,1 C 46 % 1023,7 hPa 0,0 l/m 1,3 km/h (1 Bft) W-SW 247 9,9 C 23,5 C 0,0 km/h (0 Bft)
07.06.2013 13:55 22,6 C 44 % 1023,7 hPa 0,0 l/m 2,1 km/h (1 Bft) W-NW 292 9,7 C 23,7 C 2,6 km/h (1 Bft)
07.06.2013 14:00 22,0 C 43 % 1023,4 hPa 0,0 l/m 3,1 km/h (1 Bft) W-SW 247 8,8 C 23,9 C 4,2 km/h (1 Bft)
07.06.2013 14:05 21,6 C 45 % 1023,4 hPa 0,0 l/m 2,9 km/h (1 Bft) N-NW 337 9,2 C 23,6 C 2,3 km/h (1 Bft)
07.06.2013 14:10 23,6 C 42 % 1023,4 hPa 0,0 l/m 2,7 km/h (1 Bft) W-SW 247 9,9 C 23,9 C 3,9 km/h (1 Bft)
07.06.2013 14:15 23,5 C 39 % 1023,4 hPa 0,0 l/m 3,5 km/h (1 Bft) W-NW 292 8,7 C 25,4 C 5,3 km/h (1 Bft)
07.06.2013 14:20 22,3 C 43 % 1023,4 hPa 0,0 l/m 4,0 km/h (1 Bft) N 360 9,1 C 25,1 C 8,2 km/h (2 Bft)
07.06.2013 14:25 23,6 C 40 % 1023,4 hPa 0,0 l/m 4,3 km/h (1 Bft) N 360 9,2 C 24,9 C 3,4 km/h (1 Bft)
07.06.2013 14:30 23,4 C 40 % 1023,4 hPa 0,0 l/m 3,5 km/h (1 Bft) N-NW 337 9,0 C 25,8 C 7,9 km/h (2 Bft)
07.06.2013 14:35 22,8 C 42 % 1023,4 hPa 0,0 l/m 2,1 km/h (1 Bft) S-SO 157 9,2 C 25,5 C 0,0 km/h (0 Bft)
07.06.2013 14:40 22,3 C 41 % 1023,4 hPa 0,0 l/m 2,7 km/h (1 Bft) W-SW 247 8,4 C 25,3 C 6,4 km/h (2 Bft)
07.06.2013 14:45 21,4 C 42 % 1023,4 hPa 0,0 l/m 2,6 km/h (1 Bft) W-SW 247 8,0 C 24,2 C 2,1 km/h (1 Bft)
07.06.2013 14:50 21,1 C 46 % 1023,4 hPa 0,0 l/m 3,5 km/h (1 Bft) W 270 9,0 C 23,9 C 3,4 km/h (1 Bft)
07.06.2013 14:55 21,4 C 48 % 1023,4 hPa 0,0 l/m 3,1 km/h (1 Bft) W-NW 292 9,9 C 23,3 C 0,0 km/h (0 Bft)
07.06.2013 15:00 21,2 C 46 % 1023,0 hPa 0,0 l/m 3,4 km/h (1 Bft) NW 315 9,1 C 23,2 C 13,0 km/h (3 Bft)
07.06.2013 15:05 20,9 C 48 % 1023,0 hPa 0,0 l/m 4,2 km/h (1 Bft) N 360 9,5 C 22,6 C 7,7 km/h (2 Bft)
07.06.2013 15:10 20,8 C 49 % 1023,0 hPa 0,0 l/m 4,5 km/h (1 Bft) W-NW 292 9,7 C 22,4 C 3,4 km/h (1 Bft)
07.06.2013 15:15 20,8 C 49 % 1023,0 hPa 0,0 l/m 4,2 km/h (1 Bft) NW 315 9,7 C 22,4 C 5,0 km/h (1 Bft)
07.06.2013 15:20 21,6 C 47 % 1022,8 hPa 0,0 l/m 4,3 km/h (1 Bft) N 360 9,8 C 22,4 C 4,7 km/h (1 Bft)
07.06.2013 15:25 22,9 C 44 % 1022,8 hPa 0,0 l/m 5,5 km/h (1 Bft) W-NW 292 10,0 C 23,8 C 5,5 km/h (1 Bft)
07.06.2013 15:30 23,1 C 42 % 1022,8 hPa 0,0 l/m 6,0 km/h (2 Bft) NO 45 9,5 C 24,6 C 8,4 km/h (2 Bft)
07.06.2013 15:35 22,4 C 44 % 1022,8 hPa 0,0 l/m 5,6 km/h (1 Bft) SW 225 9,5 C 25,4 C 6,4 km/h (2 Bft)
07.06.2013 15:40 21,7 C 46 % 1022,8 hPa 0,0 l/m 5,3 km/h (1 Bft) W-NW 292 9,6 C 24,7 C 15,3 km/h (3 Bft)
07.06.2013 15:45 22,2 C 44 % 1022,8 hPa 0,0 l/m 4,5 km/h (1 Bft) W-NW 292 9,4 C 25,0 C 6,0 km/h (2 Bft)
07.06.2013 15:50 22,8 C 45 % 1022,8 hPa 0,0 l/m 3,7 km/h (1 Bft) NO 45 10,2 C 25,0 C 0,0 km/h (0 Bft)
07.06.2013 15:55 21,6 C 45 % 1022,8 hPa 0,0 l/m 2,9 km/h (1 Bft) O 90 9,2 C 25,7 C 0,0 km/h (0 Bft)
07.06.2013 16:00 21,2 C 46 % 1022,8 hPa 0,0 l/m 2,7 km/h (1 Bft) W 270 9,1 C 25,0 C 1,8 km/h (1 Bft)
07.06.2013 16:05 21,2 C 48 % 1022,8 hPa 0,0 l/m 3,5 km/h (1 Bft) N-NW 337 9,7 C 23,7 C 6,1 km/h (2 Bft)
07.06.2013 16:10 21,9 C 46 % 1022,8 hPa 0,0 l/m 2,9 km/h (1 Bft) N-NW 337 9,7 C 23,8 C 0,0 km/h (0 Bft)
07.06.2013 16:15 23,0 C 43 % 1022,8 hPa 0,0 l/m 2,3 km/h (1 Bft) W-NW 292 9,7 C 25,4 C 4,7 km/h (1 Bft)
07.06.2013 16:20 23,5 C 42 % 1022,6 hPa 0,0 l/m 3,5 km/h (1 Bft) W 270 9,8 C 26,0 C 1,9 km/h (1 Bft)
07.06.2013 16:25 22,3 C 44 % 1022,6 hPa 0,0 l/m 4,3 km/h (1 Bft) W-NW 292 9,5 C 26,0 C 12,9 km/h (3 Bft)
07.06.2013 16:30 22,0 C 44 % 1022,6 hPa 0,0 l/m 4,5 km/h (1 Bft) N-NW 337 9,2 C 24,8 C 4,2 km/h (1 Bft)
07.06.2013 16:35 21,9 C 44 % 1022,6 hPa 0,0 l/m 4,8 km/h (1 Bft) N-NW 337 9,1 C 24,2 C 5,3 km/h (1 Bft)
07.06.2013 16:40 21,7 C 44 % 1022,7 hPa 0,0 l/m 4,7 km/h (1 Bft) W-NW 292 8,9 C 23,6 C 4,8 km/h (1 Bft)
07.06.2013 16:45 21,8 C 45 % 1022,7 hPa 0,0 l/m 4,7 km/h (1 Bft) N 360 9,3 C 23,0 C 3,5 km/h (1 Bft)
07.06.2013 16:50 21,9 C 45 % 1022,7 hPa 0,0 l/m 4,0 km/h (1 Bft) N-NW 337 9,4 C 23,1 C 4,8 km/h (1 Bft)
07.06.2013 16:55 21,3 C 45 % 1022,7 hPa 0,0 l/m 2,7 km/h (1 Bft) N 360 8,9 C 23,2 C 2,1 km/h (1 Bft)
07.06.2013 17:00 21,4 C 44 % 1022,4 hPa 0,0 l/m 2,6 km/h (1 Bft) W-NW 292 8,6 C 23,2 C 3,1 km/h (1 Bft)
07.06.2013 17:05 21,0 C 48 % 1022,4 hPa 0,0 l/m 3,4 km/h (1 Bft) N-NW 337 9,6 C 22,8 C 4,5 km/h (1 Bft)
07.06.2013 17:10 20,5 C 51 % 1022,4 hPa 0,0 l/m 4,5 km/h (1 Bft) N 360 10,0 C 22,4 C 6,4 km/h (2 Bft)
07.06.2013 17:15 20,1 C 54 % 1022,4 hPa 0,0 l/m 5,1 km/h (1 Bft) N-NO 22 10,5 C 21,5 C 9,5 km/h (2 Bft)
07.06.2013 17:20 19,9 C 55 % 1022,3 hPa 0,0 l/m 4,8 km/h (1 Bft) S 180 10,6 C 21,2 C 8,0 km/h (2 Bft)
07.06.2013 17:25 19,8 C 55 % 1022,3 hPa 0,0 l/m 4,3 km/h (1 Bft) W-NW 292 10,5 C 20,9 C 2,1 km/h (1 Bft)
07.06.2013 17:30 19,7 C 56 % 1022,3 hPa 0,0 l/m 3,9 km/h (1 Bft) N 360 10,7 C 20,8 C 2,7 km/h (1 Bft)
07.06.2013 17:35 19,4 C 56 % 1022,3 hPa 0,0 l/m 2,9 km/h (1 Bft) N-NW 337 10,4 C 20,7 C 3,9 km/h (1 Bft)
07.06.2013 17:40 19,1 C 57 % 1022,1 hPa 0,0 l/m 3,2 km/h (1 Bft) N 360 10,4 C 20,2 C 3,4 km/h (1 Bft)
07.06.2013 17:45 19,0 C 59 % 1022,1 hPa 0,0 l/m 2,7 km/h (1 Bft) NO 45 10,8 C 19,9 C 4,5 km/h (1 Bft)
07.06.2013 17:50 18,9 C 60 % 1022,1 hPa 0,0 l/m 1,9 km/h (1 Bft) O 90 11,0 C 19,9 C 2,4 km/h (1 Bft)
07.06.2013 17:55 18,8 C 63 % 1022,1 hPa 0,0 l/m 1,3 km/h (1 Bft) O 90 11,6 C 20,0 C 0,0 km/h (0 Bft)
07.06.2013 18:00 18,4 C 66 % 1022,0 hPa 0,0 l/m 1,1 km/h (1 Bft) N-NW 337 11,9 C 20,0 C 4,5 km/h (1 Bft)
07.06.2013 18:05 18,1 C 65 % 1022,0 hPa 0,0 l/m 1,9 km/h (1 Bft) N 360 11,4 C 19,6 C 7,1 km/h (2 Bft)
07.06.2013 18:10 18,0 C 65 % 1022,0 hPa 0,0 l/m 3,5 km/h (1 Bft) O-NO 67 11,3 C 19,2 C 4,8 km/h (1 Bft)
07.06.2013 18:15 18,0 C 66 % 1022,0 hPa 0,0 l/m 2,7 km/h (1 Bft) N-NO 22 11,6 C 19,0 C 0,0 km/h (0 Bft)
07.06.2013 18:20 18,1 C 65 % 1022,0 hPa 0,0 l/m 1,1 km/h (1 Bft) NO 45 11,4 C 19,0 C 1,6 km/h (1 Bft)
07.06.2013 18:25 18,2 C 65 % 1022,0 hPa 0,0 l/m 0,3 km/h (0 Bft) NO 45 11,5 C 19,3 C 0,0 km/h (0 Bft)
07.06.2013 18:30 18,5 C 65 % 1022,0 hPa 0,0 l/m 0,0 km/h (0 Bft) NW 315 11,8 C 19,5 C 0,0 km/h (0 Bft)
07.06.2013 18:35 18,4 C 66 % 1022,0 hPa 0,0 l/m 0,2 km/h (0 Bft) NO 45 11,9 C 19,8 C 0,0 km/h (0 Bft)
07.06.2013 18:40 18,5 C 67 % 1021,9 hPa 0,0 l/m 0,2 km/h (0 Bft) W 270 12,3 C 20,1 C 0,0 km/h (0 Bft)
07.06.2013 18:45 18,6 C 67 % 1021,9 hPa 0,0 l/m 0,3 km/h (0 Bft) O-NO 67 12,3 C 20,6 C 0,0 km/h (0 Bft)
07.06.2013 18:50 18,5 C 67 % 1021,9 hPa 0,0 l/m 0,3 km/h (0 Bft) SO 135 12,3 C 20,7 C 0,0 km/h (0 Bft)
07.06.2013 18:55 18,4 C 67 % 1021,9 hPa 0,0 l/m 0,2 km/h (0 Bft) O-SO 112 12,2 C 20,6 C 1,8 km/h (1 Bft)
07.06.2013 19:00 18,2 C 68 % 1022,0 hPa 0,0 l/m 0,2 km/h (0 Bft) O-NO 67 12,2 C 20,2 C 0,0 km/h (0 Bft)
07.06.2013 19:05 17,9 C 69 % 1022,0 hPa 0,0 l/m 0,2 km/h (0 Bft) N 360 12,1 C 19,9 C 0,0 km/h (0 Bft)
07.06.2013 19:10 17,8 C 69 % 1022,0 hPa 0,0 l/m 0,2 km/h (0 Bft) O 90 12,0 C 19,6 C 0,0 km/h (0 Bft)
07.06.2013 19:15 17,6 C 70 % 1022,0 hPa 0,0 l/m 0,3 km/h (0 Bft) N-NO 22 12,1 C 19,3 C 0,0 km/h (0 Bft)
07.06.2013 19:20 17,5 C 70 % 1021,7 hPa 0,0 l/m 0,3 km/h (0 Bft) NO 45 12,0 C 19,2 C 1,6 km/h (1 Bft)
07.06.2013 19:25 17,5 C 71 % 1021,7 hPa 0,0 l/m 0,0 km/h (0 Bft) NO 45 12,2 C 18,9 C 0,0 km/h (0 Bft)
07.06.2013 19:30 17,3 C 71 % 1021,7 hPa 0,0 l/m 0,0 km/h (0 Bft) NO 45 12,0 C 18,7 C 0,0 km/h (0 Bft)
07.06.2013 19:35 17,0 C 71 % 1021,7 hPa 0,0 l/m 0,0 km/h (0 Bft) SO 135 11,7 C 18,5 C 0,0 km/h (0 Bft)
07.06.2013 19:40 17,0 C 71 % 1021,8 hPa 0,0 l/m 0,0 km/h (0 Bft) SO 135 11,7 C 18,3 C 0,0 km/h (0 Bft)
07.06.2013 19:45 16,5 C 72 % 1021,8 hPa 0,0 l/m 0,0 km/h (0 Bft) O-SO 112 11,4 C 18,0 C 0,0 km/h (0 Bft)
07.06.2013 19:50 16,4 C 72 % 1021,8 hPa 0,0 l/m 0,0 km/h (0 Bft) O-SO 112 11,3 C 17,8 C 0,0 km/h (0 Bft)
07.06.2013 19:55 16,2 C 72 % 1021,8 hPa 0,0 l/m 0,0 km/h (0 Bft) O 90 11,1 C 17,5 C 1,9 km/h (1 Bft)
07.06.2013 20:00 16,1 C 72 % 1021,8 hPa 0,0 l/m 0,0 km/h (0 Bft) O 90 11,0 C 17,2 C 0,0 km/h (0 Bft)
07.06.2013 20:05 16,0 C 73 % 1021,8 hPa 0,0 l/m 0,2 km/h (0 Bft) O 90 11,2 C 17,1 C 1,6 km/h (1 Bft)
07.06.2013 20:10 15,9 C 74 % 1021,8 hPa 0,0 l/m 0,2 km/h (0 Bft) O 90 11,3 C 16,8 C 0,0 km/h (0 Bft)
07.06.2013 20:15 15,6 C 75 % 1021,8 hPa 0,0 l/m 0,0 km/h (0 Bft) O 90 11,2 C 16,5 C 0,0 km/h (0 Bft)
07.06.2013 20:20 15,5 C 75 % 1021,8 hPa 0,0 l/m 0,3 km/h (0 Bft) O 90 11,1 C 16,3 C 2,4 km/h (1 Bft)
07.06.2013 20:25 15,6 C 76 % 1021,8 hPa 0,0 l/m 1,6 km/h (1 Bft) O-NO 67 11,4 C 16,1 C 3,2 km/h (1 Bft)
07.06.2013 20:30 15,6 C 76 % 1021,8 hPa 0,0 l/m 2,3 km/h (1 Bft) O 90 11,4 C 16,1 C 1,6 km/h (1 Bft)
07.06.2013 20:35 15,5 C 77 % 1021,8 hPa 0,0 l/m 1,9 km/h (1 Bft) O 90 11,5 C 16,0 C 2,3 km/h (1 Bft)
07.06.2013 20:40 15,5 C 77 % 1021,6 hPa 0,0 l/m 1,9 km/h (1 Bft) NO 45 11,5 C 15,8 C 3,4 km/h (1 Bft)
07.06.2013 20:45 15,3 C 77 % 1021,6 hPa 0,0 l/m 3,4 km/h (1 Bft) O 90 11,3 C 15,8 C 3,5 km/h (1 Bft)
07.06.2013 20:50 15,2 C 78 % 1021,6 hPa 0,0 l/m 3,5 km/h (1 Bft) O-NO 67 11,4 C 15,7 C 3,9 km/h (1 Bft)
07.06.2013 20:55 14,8 C 79 % 1021,6 hPa 0,0 l/m 3,4 km/h (1 Bft) O-NO 67 11,2 C 15,5 C 4,8 km/h (1 Bft)
07.06.2013 21:00 14,6 C 79 % 1021,6 hPa 0,0 l/m 3,7 km/h (1 Bft) NO 45 11,0 C 15,2 C 4,3 km/h (1 Bft)
07.06.2013 21:05 14,5 C 81 % 1021,6 hPa 0,0 l/m 4,2 km/h (1 Bft) O 90 11,3 C 14,7 C 4,2 km/h (1 Bft)
07.06.2013 21:10 14,1 C 81 % 1021,6 hPa 0,0 l/m 4,0 km/h (1 Bft) O 90 10,9 C 14,4 C 3,5 km/h (1 Bft)
07.06.2013 21:15 13,8 C 82 % 1021,6 hPa 0,0 l/m 2,4 km/h (1 Bft) O 90 10,8 C 13,8 C 2,9 km/h (1 Bft)
07.06.2013 21:20 13,7 C 82 % 1021,1 hPa 0,0 l/m 1,9 km/h (1 Bft) O-SO 112 10,7 C 13,7 C 2,1 km/h (1 Bft)
07.06.2013 21:25 13,3 C 82 % 1021,1 hPa 0,0 l/m 1,1 km/h (1 Bft) O 90 10,3 C 13,3 C 0,0 km/h (0 Bft)
07.06.2013 21:30 12,9 C 83 % 1021,1 hPa 0,0 l/m 0,3 km/h (0 Bft) O-SO 112 10,1 C 13,0 C 0,0 km/h (0 Bft)
07.06.2013 21:35 12,9 C 83 % 1021,1 hPa 0,0 l/m 0,5 km/h (0 Bft) NO 45 10,1 C 12,7 C 0,0 km/h (0 Bft)
07.06.2013 21:40 13,0 C 83 % 1021,2 hPa 0,0 l/m 0,8 km/h (0 Bft) O-SO 112 10,2 C 12,7 C 2,1 km/h (1 Bft)
07.06.2013 21:45 12,8 C 84 % 1021,2 hPa 0,0 l/m 1,3 km/h (1 Bft) N-NO 22 10,2 C 12,7 C 0,0 km/h (0 Bft)
07.06.2013 21:50 12,7 C 84 % 1021,2 hPa 0,0 l/m 0,8 km/h (0 Bft) O-SO 112 10,1 C 12,6 C 1,8 km/h (1 Bft)
07.06.2013 21:55 12,6 C 84 % 1021,2 hPa 0,0 l/m 1,1 km/h (1 Bft) NO 45 10,0 C 12,6 C 0,0 km/h (0 Bft)
07.06.2013 22:00 12,5 C 84 % 1021,3 hPa 0,0 l/m 1,3 km/h (1 Bft) N-NO 22 9,9 C 12,5 C 2,9 km/h (1 Bft)
07.06.2013 22:05 12,4 C 85 % 1021,3 hPa 0,0 l/m 1,0 km/h (0 Bft) O 90 9,9 C 12,4 C 1,8 km/h (1 Bft)
07.06.2013 22:10 12,5 C 85 % 1021,3 hPa 0,0 l/m 1,0 km/h (0 Bft) O 90 10,0 C 12,4 C 2,4 km/h (1 Bft)
07.06.2013 22:15 12,2 C 85 % 1021,3 hPa 0,0 l/m 1,0 km/h (0 Bft) S 180 9,8 C 12,3 C 0,0 km/h (0 Bft)
07.06.2013 22:20 12,0 C 85 % 1021,3 hPa 0,0 l/m 0,6 km/h (0 Bft) S 180 9,6 C 12,2 C 0,0 km/h (0 Bft)
07.06.2013 22:25 11,7 C 86 % 1021,3 hPa 0,0 l/m 0,0 km/h (0 Bft) N-NO 22 9,4 C 11,8 C 0,0 km/h (0 Bft)
07.06.2013 22:30 11,6 C 86 % 1021,3 hPa 0,0 l/m 0,0 km/h (0 Bft) NO 45 9,3 C 11,6 C 0,0 km/h (0 Bft)
07.06.2013 22:35 11,6 C 86 % 1021,3 hPa 0,0 l/m 0,2 km/h (0 Bft) O 90 9,3 C 11,6 C 0,0 km/h (0 Bft)
07.06.2013 22:40 11,6 C 86 % 1020,9 hPa 0,0 l/m 0,2 km/h (0 Bft) O-NO 67 9,3 C 11,6 C 0,0 km/h (0 Bft)
07.06.2013 22:45 11,5 C 86 % 1020,9 hPa 0,0 l/m 0,0 km/h (0 Bft) O-SO 112 9,2 C 11,5 C 0,0 km/h (0 Bft)
07.06.2013 22:50 11,4 C 86 % 1020,9 hPa 0,0 l/m 0,0 km/h (0 Bft) W-SW 247 9,1 C 11,5 C 0,0 km/h (0 Bft)
07.06.2013 22:55 11,1 C 86 % 1020,9 hPa 0,0 l/m 0,0 km/h (0 Bft) SW 225 8,8 C 11,2 C 0,0 km/h (0 Bft)
07.06.2013 23:00 11,1 C 87 % 1021,1 hPa 0,0 l/m 0,0 km/h (0 Bft) O 90 9,0 C 11,1 C 0,0 km/h (0 Bft)
07.06.2013 23:05 11,0 C 87 % 1021,1 hPa 0,0 l/m 0,0 km/h (0 Bft) O-NO 67 8,9 C 11,0 C 0,0 km/h (0 Bft)
07.06.2013 23:10 10,9 C 87 % 1021,1 hPa 0,0 l/m 0,0 km/h (0 Bft) W-NW 292 8,8 C 10,9 C 0,0 km/h (0 Bft)
07.06.2013 23:15 11,0 C 87 % 1021,1 hPa 0,0 l/m 0,0 km/h (0 Bft) N-NO 22 8,9 C 10,9 C 0,0 km/h (0 Bft)
07.06.2013 23:20 11,0 C 88 % 1021,2 hPa 0,0 l/m 0,0 km/h (0 Bft) N 360 9,1 C 10,8 C 0,0 km/h (0 Bft)
07.06.2013 23:25 10,8 C 88 % 1021,2 hPa 0,0 l/m 0,0 km/h (0 Bft) O 90 8,9 C 10,8 C 0,0 km/h (0 Bft)
07.06.2013 23:30 10,9 C 88 % 1021,2 hPa 0,0 l/m 0,2 km/h (0 Bft) S-SO 157 9,0 C 10,8 C 0,0 km/h (0 Bft)
07.06.2013 23:35 10,9 C 88 % 1021,2 hPa 0,0 l/m 0,5 km/h (0 Bft) O-SO 112 9,0 C 11,0 C 0,0 km/h (0 Bft)
07.06.2013 23:40 10,7 C 88 % 1021,1 hPa 0,0 l/m 0,3 km/h (0 Bft) O 90 8,8 C 10,8 C 3,1 km/h (1 Bft)
07.06.2013 23:45 10,5 C 88 % 1021,1 hPa 0,0 l/m 0,2 km/h (0 Bft) S 180 8,6 C 10,7 C 0,0 km/h (0 Bft)
07.06.2013 23:50 10,4 C 88 % 1021,1 hPa 0,0 l/m 0,2 km/h (0 Bft) O 90 8,5 C 10,5 C 0,0 km/h (0 Bft)
07.06.2013 23:55 10,4 C 88 % 1021,1 hPa 0,0 l/m 0,0 km/h (0 Bft) S 180 8,5 C 10,5 C 0,0 km/h (0 Bft)
_ Min-Zeit 04:50 14:15 22:55 - 23:55 - - 05:05 04:45 23:55
Minimum _ 5,9 C 39 % 1020,9 hPa - 0,0 km/h (0 Bft) - - 4,5 C 5,8 C 0,0 km/h (0 Bft)
_ Max-Zeit 11:50 05:45 13:55 23:55 15:30 - - 08:10 09:55 15:40
Maximum _ 24,3 C 92 % 1023,7 hPa 0,0 l/m 6,0 km/h
NO (2 Bft)
- - 12,6 C 26,1 C 15,3 km/h
W-NW (3 Bft)
Durchschnitt _ 15,9 C 67 % 1022,0 hPa #0,0 l/m 1,5 km/h (1 Bft) W-NW - 9,0 C 16,7 C 2,1 km/h (1 Bft)